OV1-9 R/B, 2622

Orbit data source: Space-Track

OV1-9 R/B, 2622 is space debris in LEO originally from a launch on Sun, 11 Dec 1966 UTC launched from the Air Force Western Test Range (AFWTR). Debris objects in space refer to the collection of defunct objects orbiting the Earth. Examples of debris include non-operational satellites, rocket bodies, and fragments generated from explosions, collisions, or faulty payload assembly.

Loading next visibility...
OV1-9 R/B details
Identifier
2622, 1966-111D
Orbit
LEO
Last TLE update13 hours ago
Origin
Flag of USUSAF OAR (US)
ManufacturerABL
MissionSpacecraft
Bus & MotorALTAIR, Unknown motor
Mass125 kg wet, 125 kg dry
Launch date (UTC)
1966-12-11 (58 years ago)
Launch vehicleUnknown
Launch site
Air Force Western Test Range (AFWTR)
Object type
Payload
Rocket body
Debris
Shape & HBRCyl, 2.1 m
Radar Cross Section1.347 m², Large (>1 m²)

Expand to show TLE details & history

TLE from 13 hours ago
0 OV1-9 R/B
1 02622U 66111D   25015.40108297  .00002184  00000-0  86059-3 0  9997
2 02622  99.0952 158.4680 2226275 145.7981 230.8926 10.48751049190583
Epoch: 2025-01-15T09:37Z
Definitive object data (Epoch: 2025-01-15T09:37:33.568Z)
Latitude0.00003°
Longitude-101.01583°
Altitude3,892.614 km
Speed5.695 km/s
True Right ascension10h 33m 52s
True Declination0° 00' 00"
Sunlit
Object was in daylight at TLE epoch
Visualization TLE readout
Latitude-80.84973°
Longitude-2.57024°
Altitude3,211.801 km
Speed6.169 km/s
Apparent Right ascension12h 22m 26s
Apparent Declination-69° 04' 11"
Sunlit
Object is in daylight
Visualization observer readout
Local Sidereal Time23:13:41
Azimuth191.983° SSW
Elevation-59.438°
Doppler factor1
Orbital elements
Apogee altitude4,397.886 km
Perigee altitude473.487 km
Semi-major axis8,813.823 km
Eccentricity0.2226275
Inclination99.0952°
RAAN158.468°
Arg. of periapsis145.7981°
True anomaly214.29406°
Mean anomaly230.8926°
Eccentric anomaly222.30679°
Mean motion2.62299 °/min
BSTAR0.00086059
Orbital period137.25 mins
Loading maneuver chart data...
Loading historical data...
Loading historical data...
Loading historical data...
Loading historical data...
Loading historical data...
Loading historical data...
Loading historical data...
Other satellites on launch #111 in the year 1966 (1966-12-11 UTC)

OV1-9 R/B Visibility forecast

Observer location: undefined°, undefined

Span
Click to sort rows by Start time (UTC) header in descending order
Start Az.
Max El. time (UTC)
Max El. Az.
Max El.
End time (UTC)
End Az.
10 mins2025-01-16 06:30:40.070Z83.762° E2025-01-16 06:36:40.070Z56.053° ENE14.726°2025-01-16 06:40:40.070Z31.333° NE
26 mins2025-01-16 08:33:40.070Z149.314° SSE2025-01-16 08:50:40.070Z71.955° E43.151°2025-01-16 08:59:40.070Z352.833° N
23 mins2025-01-16 10:50:40.070Z204.678° SW2025-01-16 11:04:40.070Z258.62° W29.194°2025-01-16 11:13:40.070Z317.943° NNW
|